TimeCST,TemperatureF,Dew PointF,Humidity,Sea Level PressureIn,VisibilityMPH,Wind Direction,Wind SpeedMPH,Gust SpeedMPH,PrecipitationIn,Events,Conditions,WindDirDegrees,DateUTC
12:52 AM,17.1,12.0,81,30.24,10.0,Calm,Calm,-,N/A,,Partly Cloudy,0,2014-01-23 06:52:00
1:52 AM,16.0,10.9,81,30.27,10.0,West,3.5,-,N/A,,Clear,280,2014-01-23 07:52:00
2:52 AM,19.9,14.0,78,30.31,10.0,North,10.4,-,N/A,,Clear,350,2014-01-23 08:52:00
3:22 AM,19.4,14.0,80,30.31,10.0,NNW,10.4,-,N/A,,Mostly Cloudy,330,2014-01-23 09:22:00
3:30 AM,19.4,12.2,74,30.31,10.0,NW,6.9,-,N/A,,Scattered Clouds,320,2014-01-23 09:30:00
3:52 AM,19.0,12.9,77,30.34,10.0,NNW,9.2,-,N/A,,Clear,330,2014-01-23 09:52:00
4:52 AM,19.0,12.0,74,30.38,10.0,North,12.7,-,N/A,,Scattered Clouds,350,2014-01-23 10:52:00
5:52 AM,16.0,6.1,65,30.43,10.0,NNW,20.7,-,N/A,,Clear,340,2014-01-23 11:52:00
6:52 AM,12.9,3.9,67,30.48,10.0,North,17.3,-,N/A,,Clear,350,2014-01-23 12:52:00
7:52 AM,10.9,1.9,67,30.54,10.0,North,18.4,-,N/A,,Partly Cloudy,350,2014-01-23 13:52:00
8:52 AM,10.9,1.9,67,30.58,10.0,NNW,19.6,-,N/A,,Partly Cloudy,340,2014-01-23 14:52:00
9:52 AM,12.9,1.0,59,30.63,10.0,NNW,12.7,-,N/A,,Clear,340,2014-01-23 15:52:00
10:52 AM,14.0,-0.9,52,30.65,10.0,North,10.4,20.7,N/A,,Clear,350,2014-01-23 16:52:00
11:52 AM,16.0,-4.0,41,30.64,10.0,North,10.4,-,N/A,,Clear,350,2014-01-23 17:52:00
12:52 PM,18.0,-6.0,35,30.62,10.0,NNW,16.1,-,N/A,,Clear,330,2014-01-23 18:52:00
1:52 PM,18.0,-6.0,35,30.62,10.0,NW,15.0,20.7,N/A,,Clear,320,2014-01-23 19:52:00
2:52 PM,19.0,-4.0,36,30.63,10.0,NW,10.4,-,N/A,,Clear,320,2014-01-23 20:52:00
3:52 PM,18.0,-4.0,38,30.65,10.0,North,15.0,18.4,N/A,,Clear,350,2014-01-23 21:52:00
4:52 PM,16.0,-2.9,43,30.66,10.0,NNW,12.7,-,N/A,,Clear,340,2014-01-23 22:52:00
5:52 PM,14.0,-0.9,52,30.69,10.0,North,13.8,-,N/A,,Clear,360,2014-01-23 23:52:00
6:52 PM,12.0,-0.9,56,30.72,10.0,North,10.4,-,N/A,,Clear,360,2014-01-24 00:52:00
7:52 PM,10.9,-0.9,59,30.73,10.0,North,10.4,-,N/A,,Clear,350,2014-01-24 01:52:00
8:52 PM,9.0,-0.9,64,30.75,10.0,NNW,6.9,-,N/A,,Clear,330,2014-01-24 02:52:00
9:52 PM,9.0,-0.9,64,30.76,10.0,NNW,6.9,-,N/A,,Clear,330,2014-01-24 03:52:00
10:52 PM,8.1,-2.0,64,30.76,10.0,NW,5.8,-,N/A,,Clear,310,2014-01-24 04:52:00
11:52 PM,7.0,-0.9,70,30.76,10.0,WNW,4.6,-,N/A,,Clear,290,2014-01-24 05:52:00